Skip Page Navigation
NASA JPL Caltech
NASA Logo - Jet Propulsion Laboratory + View the NASA Portal
+ Near-Earth Object (NEO) Program
Search JPL
JPL Home Earth Solar System Stars & Galaxies Technology
JPL Solar System Dynamics
BODIES ORBITS EPHEMERIDES TOOLS PHYSICAL DATA DISCOVERY FAQ SITE MAP
JPL Small-Body Database Browser
Search: [ help ]  
(2003 UQ25)
Classification: Apollo [NEO]          SPK-ID: 3164414
Ephemeris | Orbit Diagram | Orbital Elements | Physical Parameters | Close-Approach Data ]

[ hide orbit diagram ]
Orbit Diagram
Note: Make sure you have Java enabled on your browser to see the applet. This applet is provided as a 3D orbit visualization tool. The applet was implemented using 2-body methods, and hence should not be used for determining accurate long-term trajectories (over several years or decades) or planetary encounter circumstances. For accurate long-term ephemerides, please instead use our Horizons system.
Orbit Viewer

Additional Notes: the orbits shown in the applet are color coded. The planets are white lines, and the asteroid/comet is a blue line. The bright white line indicates the portion of the orbit that is above the ecliptic plane, and the darker portion is below the ecliptic plane. Likewise for the asteroid/comet orbit, the light blue indicates the portion above the ecliptic plane, and the dark blue the portion below the ecliptic plane.

Orbit Viewer applet originally written and kindly provided by Osamu Ajiki (AstroArts), and further modified by Ron Baalke (JPL).


Orbital Elements at Epoch 2452942.5 (2003-Oct-30.0) TDB
Reference: JPL 13 (heliocentric ecliptic J2000)
 Element Value Uncertainty (1-sigma)   Units 
e .6827845028634668 0.0010646  
a 2.547091251293073 0.0080515 AU
q .8079768175310466 0.00015762 AU
i 2.13694098042411 0.0032797 deg
node 187.6235215904485 0.0099329 deg
peri 276.4772832234344 0.0090711 deg
M 348.7524201406359 0.057878 deg
tp 2452988.889721763420
(2003-Dec-15.38972176)
0.018751 JED
period 1484.790509927118
4.07
7.0403
0.01928
d
yr
n .2424584462205856 0.0011496 deg/d
Q 4.2862056850551 0.013549 AU
  Orbit Determination Parameters
   # obs. used (total)      57  
   data-arc span      11 days  
   first obs. used      2003-10-24  
   last obs. used      2003-11-04  
   planetary ephem.      DE405  
   SB-pert. ephem.      SB405-CPV-2  
   condition code      8  
   fit RMS      .71565  
   data source      ORB  
   producer      Otto Matic  
   solution date      2011-Sep-14 19:52:49  

Additional Information
 Earth MOID = .0164556 AU 
 T_jup = 3.065 
[ show covariance matrix ]

Ephemeris | Orbit Diagram | Orbital Elements | Physical Parameters | Close-Approach Data ]

Physical Parameter Table
Parameter Symbol Value Units Sigma Reference Notes
absolute magnitude H 24.196 mag .52956 13 autocmod 2.5a

[ show close-approach data ]
Ephemeris | Orbit Diagram | Orbital Elements | Physical Parameters | Close-Approach Data ]
ABOUT SSD CREDITS/AWARDS PRIVACY/COPYRIGHT GLOSSARY LINKS
FirstGov 2013-May-22 13:50 UT
(server date/time)  
NASA Home Page
Site Manager:   Donald K. Yeomans
Webmaster  Alan B. Chamberlin